Location: ?ernice
(48.8383°N, 14.3803°E)
Time: 17:01:54
(UTC+00:00)

ASTEX 1 - Pass Details

Date: 23 May 2024
Orbit: 715 x 740 km, 92.7° (Epoch: 13 June)

Event Time Altitude Azimuth Distance (km) Brightness Sun altitude
Rises 02:27:37 0° 167° (SSE) 3,149 6.4 -6.5°
Reaches altitude 10° 02:29:55 10° 166° (SSE) 2,228 5.6 -6.2°
Maximum altitude 02:34:50 75° 82° (E) 758 3.7 -5.6°
Drops below altitude 10° 02:39:45 10° 357° (N) 2,228 6.5 -5.0°
Sets 02:42:02 0° 356° (N) 3,150 7.2 -4.7°
